STARLINK-3195, 49762

Orbit data source: Space-Track

STARLINK-3195, 49762 is a payload satellite owned by SpaceX/Seattle (US) in LEO that was launched on Thu, 02 Dec 2021 UTC via an FALCON 9 launch vehicle from the Air Force Eastern Test Range (AFETR). Payload-class satellites include a variety of spacecraft equipped with specific instruments for various scientific and technological missions. These include communications satellites like Starlink; space stations such as the ISS; scientific satellites like the Hubble; Earth observation satellites from companies like Planet Labs, Umbra, and HawkEye 360; GPS; miniature CubeSats for education and research; and military/defense satellites.

Loading next visibility...
Identifier
49762, 2021-115AQ
Orbit
LEO
Country
Flag of USUS
Related business
Manufacturer
SpaceX/Seattle
Mission
Operational Commercial Communications
Bus & Motor
STARLINK, Unknown motor
Mass
290 kg wet, ~270 kg dry
Launch date (UTC)
2021-12-02 (5 years ago)
Launch vehicle
FALCON 9
Launch site
Air Force Eastern Test Range (AFETR)
Object type
Payload
Rocket body
Debris
Shape & HBR
Box + 1 Pan, 10.1 m
Radar Cross Section
13.562 m², Large (>1 m²)

Expand to show TLE details & history
Last TLE update: 2 days ago

TLE from 2 days ago
0 STARLINK-3195
1 49762U 21115AQ  26171.05007373  .00000382  00000-0  42100-4 0  9994
2 49762  53.1607  39.4960 0001375  80.0492 280.0655 15.08833406251138
Epoch: 2026-06-20T01:12Z
TLE epoch observation values (Epoch: 2026-06-20T01:12:06.370Z)
Latitude
0.00002°
Longitude
113.19921°
Altitude
540.489 km
Speed
7.593 km/s
True Right ascension
02h 37m 59s
True Declination
0° 00' 00"
Sunlit
Object was in daylight at epoch
Visualization orbit readout
Latitude
Unknown
Longitude
Unknown
Altitude
Unknown
Speed
Unknown
Apparent Right ascension
Unknown
Apparent Declination
Unknown
Sunlit
N/A
Visualization observer readout
Local Sidereal Time
21:27:55
Azimuth
Unknown
Elevation
Unknown
Doppler factor
Unknown
Orbital elements
Apogee altitude
540.969 km
Perigee altitude
539.066 km
Semi-major axis
6,918.155 km
Eccentricity
0.00014
Inclination
53.1607°
RAAN
39.496°
Arg. of periapsis
80.0492°
True anomaly
280.04999°
Mean anomaly
280.0655°
Eccentric anomaly
280.05774°
Mean motion
3.77188 °/min
Orbital period
95.44 mins
BSTAR
0.0000421
Loading maneuver chart data...
Computing Atmospheric mass density...
Loading historical data...
Loading historical data...
Loading historical data...
Loading historical data...
Loading historical data...
Loading historical data...
Loading historical data...

Documentation

Showing up to 5 results
|